Regional Weather Roundup
Issued by NWS

Home | Current Version | Previous Version | Graphics & Text | Print | Product List | Glossary On
Versions: 1 2 3 4 5 6 7 8 9 10 11 12 13 14 15 16 17 18 19 20 21 22 23 24 25 26 27 28 29 30 31 32 33 34 35 36 37 38 39 40 41 42 43 44 45 46 47 48 49 50
000
ASUS43 KMPX 240001
RWRMN
WEATHER ROUNDUP FOR MINNESOTA
NATIONAL WEATHER SERVICE TWIN CITIES/CHANHASSEN MN
600 PM CST SUN NOV 23 2014


NOTE: "FAIR" INDICATES FEW OR NO CLOUDS BELOW 12,000 FEET WITH NO
SIGNIFICANT WEATHER AND/OR OBSTRUCTIONS TO VISIBILITY. N/A MEANS
CURRENT SKY AND/OR WEATHER CONDITIONS ARE NOT AVAILABLE.

MNZ060>063-068>070-240100-
   Twin Cities Metro

CITY           SKY/WX    TMP DP  RH WIND       PRES   REMARKS
TWIN CITIES    CLOUDY    39  36  89 NW8       29.40R
6HR MIN TEMP:  39; 6HR MAX TEMP:  47;

ST PAUL        CLOUDY    39  36  89 NW10      29.40S
CRYSTAL        CLOUDY    39  36  89 W10       29.39R
LAKEVILLE      CLOUDY    37  36  93 NW14      29.39S
EDEN PRAIRIE   CLOUDY    39  36  89 NW10      29.40R
6HR MIN TEMP:  39; 6HR MAX TEMP:  49;

SOUTH ST PAUL  CLOUDY    40  37  89 NW10      29.39S
LAKE ELMO      CLOUDY    39  36  87 NW6       29.39S
$$
MNZ001>005-007-008-013>017-022>024-027-028-240100-
   Northwest Minnesota

CITY           SKY/WX    TMP DP  RH WIND       PRES   REMARKS
BEMIDJI        CLOUDY    33  31  94 W12       29.40R WCI  24
HALLOCK        CLOUDY    19  18  93 NW22G29   29.53R WCI   3
ROSEAU         CLOUDY    27  23  86 W13G18    29.44R FOG     WCI  16
WARROAD        CLOUDY    30  27  86 W5        29.43R FOG     WCI  25
THIEF RVR FALL CLOUDY    21  19  93 NW24      29.48R WCI   4
CROOKSTON      CLOUDY    21  19  93 N24       29.52R WCI   4
FOSSTON        CLOUDY    27  25  93 W14G22    29.46R FOG     WCI  15
DETROIT LAKES  CLOUDY    32  27  80 NW10      29.46S WCI  24
MOORHEAD       CLOUDY    30  25  80 W13       29.51R WCI  20
PARK RAPIDS    CLOUDY    33  27  78 W13       29.41R WCI  24
MAHNOMEN       CLOUDY    31  29  90 NW10      29.45R WCI  23
$$
MNZ006-009>011-018-025>026-240100-
   North Central Minnesota

CITY           SKY/WX    TMP DP  RH WIND       PRES   REMARKS
BAUDETTE       CLOUDY    34  33  96 NW5       29.39R FOG     WCI  30
FLAG ISLAND    CLOUDY    32  30  93 CALM      29.40R FOG
INTL FALLS     CLOUDY    34  31  88 CALM      29.38S
6HR MIN TEMP:  34; 6HR MAX TEMP:  36;

WASKISH        CLOUDY    34  32  93 CALM      29.39S FOG
BIG FORK       CLOUDY    34  32  93 CALM      29.38S FOG
LONGVILLE      LGT RAIN  36  34  93 W3        29.38F
GRAND RAPIDS   CLOUDY    34  30  86 CALM      29.38S
CRANE LAKE     CLOUDY    32  30  93 CALM      29.39F FOG
ORR            CLOUDY    34  30  86 CALM      29.35S
COOK           CLOUDY    34  34 100 CALM      29.38R FOG
WALKER         CLOUDY    37  32  83 W8        29.39S
$$
MNZ012-019>021-037-240100-
   Northeast Minnesota

CITY           SKY/WX    TMP DP  RH WIND       PRES   REMARKS
DULUTH         CLOUDY    37  34  89 NW7       29.36R FOG
6HR MIN TEMP:  37; 6HR MAX TEMP:  40; 6HR PCP: TRACE;

ELY            CLOUDY    34  34 100 CALM      29.36S FOG
HIBBING        CLOUDY    35  32  88 CALM      29.37S FOG
EVELETH        CLOUDY    34  34 100 CALM      29.38S FOG
DULUTH HARBOR  FOG       36  36 100 CALM      29.38S VSB 1/2
TWO HARBORS    MIX PCPN  39  36  87 NW3       29.35R
SILVER BAY     PTCLDY    39  37  93 CALM      29.35S FOG
GRAND MARAIS     N/A     39  38  96 CALM      29.36F
G MARAIS ARPRT FOG       34  32  93 NW3       29.35F VSB 1/4
$$
MNZ029>031-032-039>041-046>048-054>057-064-240100-
   West Central Minnesota

CITY           SKY/WX    TMP DP  RH WIND       PRES   REMARKS
FERGUS FALLS   CLOUDY    30  21  69 NW16G22   29.52R WCI  19
WHEATON        CLOUDY    27  21  80 W20G29    29.55R WCI  13
MORRIS           N/A     34  27  75 NW20      29.49R WCI  22
ALEXANDRIA     CLOUDY    33  24  69 NW18G29   29.46R WCI  22
ELBOW LAKE       N/A     31  25  80 NW18      29.49R WCI  19
WADENA         CLOUDY    32  25  74 W12       29.44R WCI  23
GLENWOOD       MOCLDY    34  28  80 NW16G23   29.46R WCI  23
APPLETON       CLOUDY    34  27  75 NW21      29.51R WCI  22
BENSON         CLOUDY    34  28  80 N14G22    29.49R WCI  24
ORTONVILLE     CLOUDY    32  23  69 NW15G22   29.52R WCI  22
MADISON        CLOUDY    36  28  75 NW22      29.52R
WILLMAR        CLOUDY    36  30  80 NW14G21   29.47S
$$
MNZ033>034-036-042>043-049>051-058-059-240100-
   Central Minnesota

CITY           SKY/WX    TMP DP  RH WIND       PRES   REMARKS
ST CLOUD       CLOUDY    38  34  85 W9        29.41R
6HR MIN TEMP:  37; 6HR MAX TEMP:  40; 6HR PCP:  0.07;

SAUK CENTRE    CLOUDY    34  30  86 NW15      29.43S WCI  24
PAYNESVILLE    CLOUDY    33  31  92 SW14G20   29.45R WCI  23
AITKIN         CLOUDY    39  34  81 CALM      29.37S HAZE
PINE RIVER     CLOUDY    37  34  87 CALM      29.44S
BRAINERD       CLOUDY    37  33  85 NW6       29.40S
STAPLES        CLOUDY    34  28  80 W12       29.42R WCI  25
LONG PRAIRIE   CLOUDY    34  30  86 W14       29.42S WCI  24
LITTLE FALLS   CLOUDY    36  32  87 W3        29.41S
LITCHFIELD     CLOUDY    37  37 100 W8        29.44R
BUFFALO        CLOUDY    37  34  91 W7        29.42S
MAPLE LAKE     CLOUDY    37  37  99 W9        29.42S
$$
MNZ037-044-045-052-053-240100-
   East Central Minnesota

CITY           SKY/WX    TMP DP  RH WIND       PRES   REMARKS
PRINCETON      CLOUDY    37  36  93 CALM      29.40S FOG
MORA           CLOUDY    34  32  93 CALM      29.39S FOG
CAMBRIDGE      CLOUDY    37  32  81 W3        29.37S HAZE
RUSH CITY      CLOUDY    36  35  96 CALM      29.39R
MOOSE LAKE     CLOUDY    37  34  87 CALM      29.35S
HINCKLEY       FOG       36  36 100 CALM      29.38S VSB 1/2
CLOQUET        CLOUDY    37  36  93 NW6       29.36R FOG
MCGREGOR       CLOUDY    37  34  87 W3        29.38S
$$
MNZ071>073-080-081-089-090-097-098-240100-
   Southwest Minnesota

CITY           SKY/WX    TMP DP  RH WIND       PRES   REMARKS
MONTEVIDEO     CLOUDY    36  30  80 N15G25    29.50R
GRANITE FALLS  CLOUDY    35  30  82 W14       29.51R WCI  25
CANBY          CLOUDY    34  27  75 NW18G28   29.53R WCI  23
MARSHALL       CLOUDY    36  25  64 NW21G26   29.50S
REDWOOD FALLS  CLOUDY    37  31  78 NW15      29.46S
OLIVIA         MOCLDY    36  32  87 NW13G18   29.47R
PIPESTONE      CLOUDY    34  25  69 NW20G28   29.50S WCI  22
WINDOM         MOCLDY    37  32  81 NW15      29.47S
WORTHINGTON    MOCLDY    34  27  75 NW17      29.49S WCI  23
JACKSON        CLOUDY    37  32  81 NW20G25   29.46F
TRACY          CLOUDY    37  30  76 NW15G22   29.50R
SLAYTON        CLOUDY    34  31  88 NW16      29.50R WCI  24
$$
MNZ065>067-074>077-082>085-091>093-240100-
   South Central Minnesota

CITY           SKY/WX    TMP DP  RH WIND       PRES   REMARKS
MANKATO        CLOUDY    39  34  81 NW17      29.42S
NEW ULM        MOCLDY    37  34  87 NW17      29.44S
ST JAMES       CLOUDY    39  34  81 NW16G24   29.46S
FAIRMONT       CLOUDY    39  30  70 NW18G24   29.44S
GLENCOE        MOCLDY    39  37  92 W12       29.41F
FARIBAULT      CLOUDY    39  37  93 W7        29.40S
OWATONNA       CLOUDY    39  37  93 NW13      29.39S
WASECA         CLOUDY    37  34  87 NW13      29.42S
ALBERT LEA     CLOUDY    39  39 100 NW10G21   29.39S
$$
MNZ078>079-086>088-094>096-240100-
   Southeast Minnesota

CITY           SKY/WX    TMP DP  RH WIND       PRES   REMARKS
ROCHESTER      LGT RAIN  41  40  96 NW18      29.35F FOG
6HR MIN TEMP:  41; 6HR MAX TEMP:  50; 6HR PCP:  0.04;

RED WING         N/A     41  41 100 NW7       29.36S
STANTON        DRIZZLE   41  38  86 NW7       29.37F
DODGE CENTER   LGT RAIN  39  39 100 NW14      29.36F
WINONA         CLOUDY    48  48 100 CALM      29.33F FOG
AUSTIN         CLOUDY    39  39 100 NW15      29.35F
PRESTON        DRZL/FOG  46  46  99 CALM      29.33F VSB 1/2
$$
ABBREVIATIONS USED IN REMARKS
   TC - TEMPERATURES IN CELSIUS
  WCI - WIND CHILL INDEX
   HX - HEAT INDEX
  VSB - VISIBILITY
$$



USA.gov is the U.S. government's official web portal to all federal, state and local government web resources and services.